N7DTY Weather Reports


Display with metric or nautical units.
time (UTC)temp
F
wind
direction
speed
MPH
gust
MPH
rain 1hr
in
rain 24hr
in
rain mn
in
humidity
%
barometer
mb
20200331233036 47 193 2.0 9.0 0.00 0.24 0.24 72 1017.0
20200331231513 48 223 2.0 9.0 0.00 0.24 0.24 71 1016.9
20200331230015 48 245 3.0 9.0 0.00 0.24 0.24 72 1017.0
20200331224509 48 104 3.0 10.0 0.00 0.24 0.24 72 1016.8
20200331223002 48 197 3.0 10.0 0.00 0.24 0.24 73 1016.9
20200331221504 47 205 3.0 9.0 0.00 0.24 0.24 77 1016.9
20200331220140 47 175 4.0 9.0 0.00 0.24 0.24 74 1016.8
20200331213206 48 207 2.0 6.0 0.00 0.24 0.24 78 1017.0
20200331211622 47 191 2.0 9.0 0.00 0.24 0.24 77 1017.1
20200331210113 46 197 5.0 11.0 0.00 0.24 0.24 80 1017.1
20200331204635 45 186 2.0 8.0 0.00 0.24 0.24 86 1017.1
20200331203113 45 360 3.0 8.0 0.00 0.24 0.24 81 1017.2
20200331201601 47 213 3.0 11.0 0.00 0.24 0.24 78 1017.0
20200331200103 47 212 3.0 7.0 0.00 0.24 0.24 78 1017.0
20200331194616 47 213 3.0 12.0 0.00 0.24 0.24 80 1017.1
20200331193112 46 209 4.0 9.0 0.00 0.24 0.24 80 1017.1
20200331191634 46 201 3.0 11.0 0.00 0.24 0.24 81 1016.8
20200331190119 46 201 2.0 9.0 0.00 0.24 0.24 81 1016.8
20200331184606 46 191 2.0 8.0 0.00 0.24 0.24 81 1016.7
20200331183130 45 199 4.0 8.0 0.00 0.24 0.24 82 1016.7
20200331181548 45 168 3.0 7.0 0.00 0.24 0.24 81 1016.6
20200331180044 44 173 2.0 9.0 0.00 0.24 0.24 85 1016.6
20200331174535 44 198 4.0 7.0 0.00 0.24 0.24 84 1016.5
20200331173050 43 360 2.0 9.0 0.00 0.24 0.24 88 1016.4
20200331171544 42 167 2.0 6.0 0.00 0.24 0.24 93 1016.5
20200331170044 41 188 2.0 4.0 0.00 0.24 0.24 94 1016.3
20200331164544 41 152 1.0 3.0 0.00 0.24 0.24 95 1016.1
20200331163028 40 200 1.0 5.0 0.00 0.24 0.24 95 1016.0
20200331161523 40 189 1.0 3.0 0.00 0.24 0.24 95 1015.8
20200331160047 39 140 0.0 2.0 0.00 0.24 0.24 96 1015.8
20200331154521 38 140 0.0 1.0 0.00 0.24 0.24 96 1015.7
20200331153124 38 140 0.0 1.0 0.00 0.24 0.24 96 1015.6
20200331151521 37 140 0.0 1.0 0.00 0.24 0.24 96 1015.6
20200331150038 37 140 0.0 1.0 0.00 0.24 0.24 96 1015.5
20200331144527 37 140 0.0 1.0 0.00 0.24 0.24 96 1015.3
20200331143023 37 140 0.0 0.0 0.01 0.24 0.24 95 1015.3
20200331141508 37 140 1.0 2.0 0.01 0.24 0.24 95 1015.1
20200331140007 37 140 0.0 2.0 0.02 0.24 0.24 95 1014.9
20200331134504 38 140 0.0 2.0 0.04 0.24 0.24 95 1014.7
20200331133015 38 140 1.0 2.0 0.04 0.23 0.23 95 1014.6
20200331131502 38 140 0.0 1.0 0.06 0.23 0.23 95 1014.6
20200331130014 38 140 1.0 2.0 0.08 0.22 0.22 95 1014.5
20200331124628 38 140 0.0 0.0 0.10 0.34 0.20 95 1014.6
20200331123146 38 140 0.0 0.0 0.12 0.33 0.19 95 1014.5
20200331121620 38 140 0.0 1.0 0.11 0.31 0.17 94 1014.4
20200331120149 38 140 0.0 2.0 0.12 0.28 0.14 94 1014.4
20200331114727 39 144 0.0 1.0 0.09 0.28 0.10 94 1014.3
20200331113124 39 144 1.0 4.0 0.06 0.26 0.07 94 1014.3
20200331111603 39 183 2.0 7.0 0.05 0.25 0.06 94 1014.2
20200331110127 39 129 0.0 2.0 0.01 0.21 0.02 93 1014.2
20200331104618 39 129 0.0 1.0 0.00 0.23 0.01 93 1014.0
20200331103110 39 129 0.0 2.0 0.00 0.23 0.01 93 1013.9
20200331101639 39 129 0.0 1.0 0.00 0.23 0.01 92 1014.0
20200331100128 39 130 0.0 2.0 0.00 0.23 0.01 93 1014.0
20200331094549 39 208 0.0 2.0 0.00 0.23 0.01 93 1013.9
20200331093114 39 225 0.0 2.0 0.00 0.23 0.01 93 1013.9
20200331091737 38 225 0.0 2.0 0.00 0.23 0.01 92 1013.9
20200331090121 38 226 0.0 2.0 0.00 0.23 0.01 92 1013.8
20200331084621 39 226 0.0 2.0 0.01 0.23 0.01 91 1013.6
20200331083324 39 226 0.0 2.0 0.01 0.23 0.01 91 1013.5
20200331081554 40 226 0.0 1.0 0.01 0.23 0.01 91 1013.3
20200331080054 40 226 0.0 1.0 0.01 0.23 0.01 90 1013.2
20200331074606 41 226 0.0 1.0 0.00 0.22 0.00 87 1013.3
20200331073157 41 226 0.0 1.0 0.00 0.22 0.00 85 1013.3
20200331071626 41 157 0.0 2.0 0.00 0.22 0.00 85 1013.4
20200331070139 41 159 0.0 1.0 0.00 0.22 0.00 86 1013.4
20200331064542 41 159 0.0 1.0 0.00 0.22 0.22 85 1013.3
20200331063033 41 159 0.0 2.0 0.00 0.22 0.22 85 1013.1
20200331061541 41 159 0.0 1.0 0.00 0.22 0.22 85 1013.2
20200331060100 41 159 0.0 2.0 0.00 0.22 0.22 85 1013.2
20200331054545 41 159 0.0 2.0 0.00 0.22 0.22 86 1013.3
20200331053043 40 126 0.0 1.0 0.00 0.22 0.22 88 1013.4
20200331051545 40 126 0.0 1.0 0.00 0.22 0.22 86 1013.3
20200331050040 41 126 0.0 0.0 0.00 0.22 0.22 85 1013.1
20200331044523 42 126 0.0 0.0 0.00 0.22 0.22 84 1013.1
20200331043105 43 126 0.0 0.0 0.00 0.22 0.22 81 1013.1
20200331041535 43 126 0.0 1.0 0.00 0.22 0.22 80 1013.2
20200331040039 44 126 0.0 3.0 0.00 0.22 0.22 80 1012.9
20200331034528 44 238 0.0 4.0 0.00 0.22 0.22 81 1012.8
20200331033035 44 167 1.0 6.0 0.00 0.22 0.22 78 1012.9
20200331031520 43 175 0.0 5.0 0.00 0.22 0.22 77 1012.7
20200331030017 43 196 0.0 2.0 0.00 0.22 0.22 77 1012.6
20200331024519 44 178 0.0 4.0 0.00 0.22 0.22 76 1012.5
20200331023021 44 211 0.0 6.0 0.00 0.22 0.22 75 1012.3
20200331021514 45 175 1.0 6.0 0.00 0.22 0.22 76 1012.2
20200331020009 45 192 1.0 5.0 0.00 0.22 0.22 73 1012.3
20200331014509 46 165 2.0 8.0 0.00 0.22 0.22 69 1012.4
20200331013036 46 172 3.0 9.0 0.00 0.22 0.22 72 1012.3
20200331011506 46 200 3.0 8.0 0.00 0.22 0.22 69 1012.1
20200331010003 47 221 2.0 5.0 0.00 0.22 0.22 72 1012.1
20200331004725 46 173 3.0 7.0 0.00 0.22 0.22 72 1012.0
20200331003158 47 155 2.0 8.0 0.00 0.22 0.22 78 1011.9
20200331001611 46 173 3.0 7.0 0.00 0.22 0.22 76 1011.8
20200331000222 47 123 3.0 9.0 0.00 0.22 0.22 75 1011.7
20200330234642 47 207 2.0 10.0 0.00 0.22 0.22 73 1011.7